User: anonymous   Login
Location: Boiro
(42.6475°N, 8.8834°W)
Time: 21:33:37
(UTC+01:00)
Language:

PCSat - Orbit

View from above orbital plane
View from above orbital plane
View from above satellite
View from above satellite

Ground track
Ground track

The orbit data is extracted from the following two-line orbital elements,

1 26931U 01043C   22022.55470330  .00000028  00000-0  42558-4 0  9992
2 26931  67.0513  74.9704 0006964 280.3078  79.7238 14.30656380 60535
Epoch (UTC): 22 January 2022 13:18:46
Eccentricity: 0.0006964
inclination: 67.0513°
perigee height: 784 km
apogee height: 794 km
right ascension of ascending node: 74.9704°
argument of perigee: 280.3078°
revolutions per day: 14.30656380
mean anomaly at epoch: 79.7238°
orbit number at epoch: 6053

The dashed part of the orbit path shows where the satellite is in the earth's shadow,  

DLR